Time,TemperatureF,DewpointF,PressureIn,WindDirection,WindDirectionDegrees,WindSpeedMPH,WindSpeedGustMPH,Humidity,HourlyPrecipIn,Conditions,Clouds,dailyrainin,SoftwareType,DateUTC
2013-01-18 00:02:00,24.0,-2.0,-100.00,NW,308,13.0,24.0,28,-99.99,,,-99.99,,2013-01-18 07:02:00,
2013-01-18 00:12:00,25.0,-1.0,-100.00,WSW,251,12.0,24.0,28,-99.99,,,-99.99,,2013-01-18 07:12:00,
2013-01-18 00:22:00,25.0,-1.0,-100.00,WSW,245,12.0,25.0,28,-99.99,,,-99.99,,2013-01-18 07:22:00,
2013-01-18 00:32:00,25.0,-3.0,-100.00,West,268,14.0,29.0,25,-99.99,,,-99.99,,2013-01-18 07:32:00,
2013-01-18 00:42:00,26.0,-2.0,-100.00,North,359,17.0,29.0,26,-99.99,,,-99.99,,2013-01-18 07:42:00,
2013-01-18 00:52:00,26.0,-2.0,-100.00,WNW,291,17.0,27.0,25,-99.99,,,-99.99,,2013-01-18 07:52:00,
2013-01-18 01:02:00,25.0,-3.0,-100.00,WSW,256,17.0,26.0,25,-99.99,,,-99.99,,2013-01-18 08:02:00,
2013-01-18 01:12:00,25.0,-4.0,-100.00,WNW,302,17.0,26.0,24,-99.99,,,-99.99,,2013-01-18 08:12:00,
2013-01-18 01:22:00,26.0,-4.0,-100.00,West,274,16.0,28.0,23,-99.99,,,-99.99,,2013-01-18 08:22:00,
2013-01-18 01:32:00,26.0,-3.0,-100.00,WNW,285,16.0,25.0,24,-99.99,,,-99.99,,2013-01-18 08:32:00,
2013-01-18 01:42:00,25.0,-3.0,-100.00,West,274,15.0,25.0,25,-99.99,,,-99.99,,2013-01-18 08:42:00,
2013-01-18 01:52:00,26.0,-3.0,-100.00,West,274,20.0,24.0,24,-99.99,,,-99.99,,2013-01-18 08:52:00,
2013-01-18 02:02:00,26.0,-3.0,-100.00,North,359,17.0,29.0,24,-99.99,,,-99.99,,2013-01-18 09:02:00,
2013-01-18 02:12:00,26.0,-4.0,-100.00,WSW,245,21.0,29.0,23,-99.99,,,-99.99,,2013-01-18 09:12:00,
2013-01-18 02:22:00,26.0,-4.0,-100.00,West,274,22.0,29.0,22,-99.99,,,-99.99,,2013-01-18 09:22:00,
2013-01-18 02:32:00,26.0,-5.0,-100.00,NNW,336,18.0,37.0,21,-99.99,,,-99.99,,2013-01-18 09:32:00,
2013-01-18 02:42:00,26.0,-5.0,-100.00,West,274,22.0,37.0,21,-99.99,,,-99.99,,2013-01-18 09:42:00,
2013-01-18 02:52:00,26.0,-4.0,-100.00,WSW,245,20.0,27.0,23,-99.99,,,-99.99,,2013-01-18 09:52:00,
2013-01-18 03:02:00,26.0,-4.0,-100.00,WSW,256,20.0,34.0,23,-99.99,,,-99.99,,2013-01-18 10:02:00,
2013-01-18 03:12:00,26.0,-4.0,-100.00,WSW,256,21.0,34.0,23,-99.99,,,-99.99,,2013-01-18 10:12:00,
2013-01-18 03:22:00,26.0,-4.0,-100.00,WSW,251,22.0,28.0,23,-99.99,,,-99.99,,2013-01-18 10:22:00,
2013-01-18 03:32:00,26.0,-4.0,-100.00,SW,234,15.0,34.0,23,-99.99,,,-99.99,,2013-01-18 10:32:00,
2013-01-18 03:42:00,25.0,-4.0,-100.00,West,279,18.0,34.0,23,-99.99,,,-99.99,,2013-01-18 10:42:00,
2013-01-18 03:52:00,26.0,-3.0,-100.00,West,268,20.0,30.0,25,-99.99,,,-99.99,,2013-01-18 10:52:00,
2013-01-18 04:02:00,25.0,-3.0,-100.00,WSW,256,19.0,32.0,25,-99.99,,,-99.99,,2013-01-18 11:02:00,
2013-01-18 04:12:00,25.0,-3.0,-100.00,West,268,20.0,32.0,25,-99.99,,,-99.99,,2013-01-18 11:12:00,
2013-01-18 04:22:00,25.0,-3.0,-100.00,WNW,296,21.0,32.0,25,-99.99,,,-99.99,,2013-01-18 11:22:00,
2013-01-18 04:32:00,25.0,-3.0,-100.00,West,262,19.0,29.0,25,-99.99,,,-99.99,,2013-01-18 11:32:00,
2013-01-18 04:42:00,24.0,-4.0,-100.00,WSW,256,19.0,29.0,25,-99.99,,,-99.99,,2013-01-18 11:42:00,
2013-01-18 04:52:00,25.0,-3.0,-100.00,WNW,291,21.0,21.0,25,-99.99,,,-99.99,,2013-01-18 11:52:00,
2013-01-18 05:02:00,25.0,-3.0,-100.00,WSW,245,21.0,33.0,25,-99.99,,,-99.99,,2013-01-18 12:02:00,
2013-01-18 05:12:00,25.0,-3.0,-100.00,West,279,19.0,33.0,25,-99.99,,,-99.99,,2013-01-18 12:12:00,
2013-01-18 05:22:00,25.0,-3.0,-100.00,WNW,285,23.0,31.0,25,-99.99,,,-99.99,,2013-01-18 12:22:00,
2013-01-18 05:32:00,26.0,-2.0,-100.00,West,268,23.0,31.0,25,-99.99,,,-99.99,,2013-01-18 12:32:00,
2013-01-18 05:42:00,25.0,-4.0,-100.00,West,262,27.0,32.0,24,-99.99,,,-99.99,,2013-01-18 12:42:00,
2013-01-18 05:52:00,25.0,-4.0,-100.00,NW,319,18.0,35.0,24,-99.99,,,-99.99,,2013-01-18 12:52:00,
2013-01-18 06:03:00,26.0,-3.0,-100.00,West,262,21.0,33.0,24,-99.99,,,-99.99,,2013-01-18 13:03:00,
2013-01-18 06:12:00,26.0,-4.0,-100.00,SSE,148,20.0,33.0,22,-99.99,,,-99.99,,2013-01-18 13:12:00,
2013-01-18 06:23:00,26.0,-3.0,-100.00,SW,228,22.0,23.0,23,-99.99,,,-99.99,,2013-01-18 13:23:00,
2013-01-18 06:33:00,25.0,-3.0,-100.00,West,274,19.0,31.0,25,-99.99,,,-99.99,,2013-01-18 13:33:00,
2013-01-18 06:43:00,25.0,-3.0,-100.00,West,274,19.0,31.0,25,-99.99,,,-99.99,,2013-01-18 13:43:00,
2013-01-18 06:52:00,25.0,-3.0,-100.00,WSW,256,24.0,33.0,25,-99.99,,,-99.99,,2013-01-18 13:52:00,
2013-01-18 07:03:00,25.0,-3.0,-100.00,West,268,20.0,33.0,25,-99.99,,,-99.99,,2013-01-18 14:03:00,
2013-01-18 07:12:00,24.0,-3.0,-100.00,WNW,285,18.0,33.0,26,-99.99,,,-99.99,,2013-01-18 14:12:00,
2013-01-18 07:22:00,24.0,-3.0,-100.00,WSW,239,16.0,31.0,27,-99.99,,,-99.99,,2013-01-18 14:22:00,
2013-01-18 07:33:00,24.0,-3.0,-100.00,West,274,19.0,33.0,27,-99.99,,,-99.99,,2013-01-18 14:33:00,
2013-01-18 07:42:00,24.0,-3.0,-100.00,WSW,251,20.0,33.0,27,-99.99,,,-99.99,,2013-01-18 14:42:00,
2013-01-18 07:53:00,25.0,-2.0,-100.00,West,274,19.0,30.0,27,-99.99,,,-99.99,,2013-01-18 14:53:00,
2013-01-18 08:03:00,25.0,-2.0,-100.00,SW,234,17.0,30.0,27,-99.99,,,-99.99,,2013-01-18 15:03:00,
2013-01-18 08:12:00,25.0,-2.0,-100.00,West,268,18.0,30.0,27,-99.99,,,-99.99,,2013-01-18 15:12:00,
2013-01-18 08:23:00,24.0,-3.0,-100.00,West,268,19.0,27.0,27,-99.99,,,-99.99,,2013-01-18 15:23:00,
2013-01-18 08:33:00,25.0,-2.0,-100.00,West,268,20.0,27.0,27,-99.99,,,-99.99,,2013-01-18 15:33:00,
2013-01-18 08:43:00,26.0,-2.0,-100.00,SW,222,15.0,29.0,25,-99.99,,,-99.99,,2013-01-18 15:43:00,
2013-01-18 08:53:00,26.0,-2.0,-100.00,WNW,296,16.0,26.0,25,-99.99,,,-99.99,,2013-01-18 15:53:00,
2013-01-18 09:03:00,27.0,-4.0,-100.00,WSW,239,17.0,30.0,23,-99.99,,,-99.99,,2013-01-18 16:03:00,
2013-01-18 09:12:00,27.0,-3.0,-100.00,SW,228,17.0,30.0,23,-99.99,,,-99.99,,2013-01-18 16:12:00,
2013-01-18 09:23:00,28.0,-3.0,-100.00,West,268,16.0,16.0,22,-99.99,,,-99.99,,2013-01-18 16:23:00,
2013-01-18 09:33:00,29.0,-2.0,-100.00,SW,222,15.0,29.0,22,-99.99,,,-99.99,,2013-01-18 16:33:00,
2013-01-18 09:42:00,28.0,-4.0,-100.00,WSW,256,15.0,29.0,20,-99.99,,,-99.99,,2013-01-18 16:42:00,
2013-01-18 09:52:00,29.0,-3.0,-100.00,West,274,16.0,27.0,21,-99.99,,,-99.99,,2013-01-18 16:52:00,
2013-01-18 10:03:00,28.0,-3.0,-100.00,WNW,285,19.0,28.0,21,-99.99,,,-99.99,,2013-01-18 17:03:00,
2013-01-18 10:13:00,29.0,-1.0,-100.00,WSW,239,15.0,28.0,23,-99.99,,,-99.99,,2013-01-18 17:13:00,
2013-01-18 10:23:00,29.0,-1.0,-100.00,WSW,251,19.0,28.0,23,-99.99,,,-99.99,,2013-01-18 17:23:00,
2013-01-18 10:33:00,29.0,0.0,-100.00,West,268,18.0,29.0,24,-99.99,,,-99.99,,2013-01-18 17:33:00,
2013-01-18 10:42:00,29.0,-1.0,-100.00,West,279,17.0,29.0,23,-99.99,,,-99.99,,2013-01-18 17:42:00,
2013-01-18 10:53:00,30.0,0.0,-100.00,West,262,18.0,33.0,24,-99.99,,,-99.99,,2013-01-18 17:53:00,
2013-01-18 11:03:00,30.0,0.0,-100.00,SSW,211,15.0,33.0,24,-99.99,,,-99.99,,2013-01-18 18:03:00,
2013-01-18 11:12:00,30.0,-1.0,-100.00,WNW,285,17.0,33.0,23,-99.99,,,-99.99,,2013-01-18 18:12:00,
2013-01-18 11:23:00,30.0,1.0,-100.00,West,262,17.0,27.0,25,-99.99,,,-99.99,,2013-01-18 18:23:00,
2013-01-18 11:33:00,29.0,0.0,-100.00,SSW,211,19.0,26.0,25,-99.99,,,-99.99,,2013-01-18 18:33:00,
2013-01-18 11:43:00,29.0,0.0,-100.00,WNW,291,13.0,26.0,25,-99.99,,,-99.99,,2013-01-18 18:43:00,
2013-01-18 11:52:00,30.0,1.0,-100.00,West,279,19.0,29.0,25,-99.99,,,-99.99,,2013-01-18 18:52:00,
2013-01-18 12:02:00,29.0,1.0,-100.00,SW,228,19.0,28.0,26,-99.99,,,-99.99,,2013-01-18 19:02:00,
2013-01-18 12:12:00,29.0,0.0,-100.00,West,268,21.0,28.0,25,-99.99,,,-99.99,,2013-01-18 19:12:00,
2013-01-18 12:22:00,30.0,1.0,-100.00,SW,228,25.0,30.0,25,-99.99,,,-99.99,,2013-01-18 19:22:00,
2013-01-18 12:33:00,30.0,2.0,-100.00,SW,234,16.0,32.0,26,-99.99,,,-99.99,,2013-01-18 19:33:00,
2013-01-18 12:42:00,30.0,1.0,-100.00,WSW,245,18.0,32.0,26,-99.99,,,-99.99,,2013-01-18 19:42:00,
2013-01-18 12:52:00,29.0,1.0,-100.00,WNW,291,23.0,30.0,27,-99.99,,,-99.99,,2013-01-18 19:52:00,
2013-01-18 13:03:00,30.0,0.0,-100.00,WSW,256,14.0,28.0,24,-99.99,,,-99.99,,2013-01-18 20:03:00,
2013-01-18 13:12:00,30.0,0.0,-100.00,West,262,19.0,28.0,24,-99.99,,,-99.99,,2013-01-18 20:12:00,
2013-01-18 13:23:00,29.0,1.0,-100.00,WNW,302,16.0,31.0,26,-99.99,,,-99.99,,2013-01-18 20:23:00,
2013-01-18 13:33:00,29.0,1.0,-100.00,West,268,18.0,27.0,26,-99.99,,,-99.99,,2013-01-18 20:33:00,
2013-01-18 13:42:00,29.0,0.0,-100.00,West,274,20.0,27.0,25,-99.99,,,-99.99,,2013-01-18 20:42:00,
2013-01-18 13:52:00,29.0,1.0,-100.00,WNW,302,19.0,34.0,26,-99.99,,,-99.99,,2013-01-18 20:52:00,
2013-01-18 14:03:00,29.0,0.0,-100.00,WNW,291,19.0,31.0,25,-99.99,,,-99.99,,2013-01-18 21:03:00,
2013-01-18 14:12:00,29.0,0.0,-100.00,NW,308,21.0,31.0,25,-99.99,,,-99.99,,2013-01-18 21:12:00,
2013-01-18 14:22:00,29.0,0.0,-100.00,South,188,22.0,30.0,24,-99.99,,,-99.99,,2013-01-18 21:22:00,
2013-01-18 14:33:00,29.0,0.0,-100.00,WSW,245,19.0,31.0,24,-99.99,,,-99.99,,2013-01-18 21:33:00,
2013-01-18 14:42:00,29.0,0.0,-100.00,WSW,251,19.0,31.0,25,-99.99,,,-99.99,,2013-01-18 21:42:00,
2013-01-18 14:52:00,29.0,0.0,-100.00,West,268,17.0,30.0,25,-99.99,,,-99.99,,2013-01-18 21:52:00,
2013-01-18 15:03:00,29.0,0.0,-100.00,North,6,14.0,14.0,24,-99.99,,,-99.99,,2013-01-18 22:03:00,
2013-01-18 15:12:00,29.0,-1.0,-100.00,West,268,16.0,16.0,24,-99.99,,,-99.99,,2013-01-18 22:12:00,
2013-01-18 15:22:00,28.0,0.0,-100.00,SSW,211,18.0,23.0,26,-99.99,,,-99.99,,2013-01-18 22:22:00,
2013-01-18 15:32:00,27.0,1.0,-100.00,WNW,296,14.0,26.0,28,-99.99,,,-99.99,,2013-01-18 22:32:00,
2013-01-18 15:42:00,27.0,1.0,-100.00,WNW,296,14.0,26.0,28,-99.99,,,-99.99,,2013-01-18 22:42:00,
2013-01-18 15:52:00,26.0,-1.0,-100.00,West,274,18.0,28.0,28,-99.99,,,-99.99,,2013-01-18 22:52:00,
2013-01-18 16:02:00,26.0,-1.0,-100.00,WNW,291,19.0,29.0,28,-99.99,,,-99.99,,2013-01-18 23:02:00,
2013-01-18 16:12:00,26.0,0.0,-100.00,WNW,296,19.0,29.0,29,-99.99,,,-99.99,,2013-01-18 23:12:00,
2013-01-18 16:22:00,26.0,0.0,-100.00,West,279,19.0,28.0,29,-99.99,,,-99.99,,2013-01-18 23:22:00,
2013-01-18 16:32:00,25.0,1.0,-100.00,WSW,239,21.0,30.0,31,-99.99,,,-99.99,,2013-01-18 23:32:00,
2013-01-18 16:42:00,25.0,0.0,-100.00,West,279,24.0,30.0,31,-99.99,,,-99.99,,2013-01-18 23:42:00,
2013-01-18 16:52:00,25.0,0.0,-100.00,WNW,291,16.0,36.0,30,-99.99,,,-99.99,,2013-01-18 23:52:00,
2013-01-18 17:02:00,25.0,0.0,-100.00,West,268,18.0,27.0,31,-99.99,,,-99.99,,2013-01-19 00:02:00,
2013-01-18 17:12:00,24.0,-1.0,-100.00,West,279,19.0,27.0,31,-99.99,,,-99.99,,2013-01-19 00:12:00,
2013-01-18 17:22:00,24.0,-1.0,-100.00,WNW,302,16.0,27.0,30,-99.99,,,-99.99,,2013-01-19 00:22:00,
2013-01-18 17:32:00,24.0,-1.0,-100.00,WSW,239,22.0,36.0,30,-99.99,,,-99.99,,2013-01-19 00:32:00,
2013-01-18 17:42:00,24.0,0.0,-100.00,West,274,19.0,36.0,31,-99.99,,,-99.99,,2013-01-19 00:42:00,
2013-01-18 17:53:00,24.0,0.0,-100.00,WNW,285,23.0,34.0,31,-99.99,,,-99.99,,2013-01-19 00:53:00,
2013-01-18 18:02:00,24.0,0.0,-100.00,WSW,239,18.0,19.0,31,-99.99,,,-99.99,,2013-01-19 01:02:00,
2013-01-18 18:12:00,24.0,0.0,-100.00,SW,228,21.0,21.0,32,-99.99,,,-99.99,,2013-01-19 01:12:00,
2013-01-18 18:22:00,24.0,-1.0,-100.00,South,171,20.0,31.0,31,-99.99,,,-99.99,,2013-01-19 01:22:00,
2013-01-18 18:32:00,25.0,-3.0,-100.00,WNW,285,17.0,30.0,27,-99.99,,,-99.99,,2013-01-19 01:32:00,
2013-01-18 18:42:00,25.0,-2.0,-100.00,West,262,18.0,30.0,27,-99.99,,,-99.99,,2013-01-19 01:42:00,
2013-01-18 18:52:00,25.0,-2.0,-100.00,West,268,19.0,28.0,27,-99.99,,,-99.99,,2013-01-19 01:52:00,
2013-01-18 19:02:00,24.0,-1.0,-100.00,WNW,291,15.0,29.0,29,-99.99,,,-99.99,,2013-01-19 02:02:00,
2013-01-18 19:12:00,24.0,-1.0,-100.00,West,268,18.0,29.0,29,-99.99,,,-99.99,,2013-01-19 02:12:00,
2013-01-18 19:22:00,24.0,-1.0,-100.00,NNW,342,16.0,29.0,29,-99.99,,,-99.99,,2013-01-19 02:22:00,
2013-01-18 19:33:00,24.0,-1.0,-100.00,WNW,291,15.0,27.0,30,-99.99,,,-99.99,,2013-01-19 02:33:00,
2013-01-18 19:42:00,24.0,-2.0,-100.00,WSW,251,19.0,27.0,28,-99.99,,,-99.99,,2013-01-19 02:42:00,
2013-01-18 19:52:00,25.0,-2.0,-100.00,WSW,251,21.0,27.0,27,-99.99,,,-99.99,,2013-01-19 02:52:00,
2013-01-18 20:03:00,25.0,-1.0,-100.00,WNW,285,18.0,20.0,29,-99.99,,,-99.99,,2013-01-19 03:03:00,
2013-01-18 20:12:00,25.0,-1.0,-100.00,SSW,211,14.0,20.0,29,-99.99,,,-99.99,,2013-01-19 03:12:00,
2013-01-18 20:22:00,24.0,-2.0,-100.00,WSW,251,16.0,31.0,29,-99.99,,,-99.99,,2013-01-19 03:22:00,
2013-01-18 20:32:00,24.0,-1.0,-100.00,WNW,285,14.0,29.0,31,-99.99,,,-99.99,,2013-01-19 03:32:00,
2013-01-18 20:43:00,24.0,-1.0,-100.00,West,279,18.0,29.0,30,-99.99,,,-99.99,,2013-01-19 03:43:00,
2013-01-18 20:52:00,25.0,0.0,-100.00,WSW,251,17.0,30.0,30,-99.99,,,-99.99,,2013-01-19 03:52:00,
2013-01-18 21:02:00,26.0,0.0,-100.00,WSW,239,23.0,23.0,30,-99.99,,,-99.99,,2013-01-19 04:02:00,
2013-01-18 21:12:00,26.0,1.0,-100.00,West,268,19.0,22.0,30,-99.99,,,-99.99,,2013-01-19 04:12:00,
2013-01-18 21:22:00,25.0,-1.0,-100.00,WNW,302,18.0,30.0,29,-99.99,,,-99.99,,2013-01-19 04:22:00,
2013-01-18 21:32:00,25.0,-1.0,-100.00,West,279,26.0,37.0,29,-99.99,,,-99.99,,2013-01-19 04:32:00,
2013-01-18 21:42:00,26.0,0.0,-100.00,West,279,26.0,37.0,29,-99.99,,,-99.99,,2013-01-19 04:42:00,
2013-01-18 21:52:00,26.0,0.0,-100.00,West,262,18.0,34.0,29,-99.99,,,-99.99,,2013-01-19 04:52:00,
2013-01-18 22:03:00,25.0,-2.0,-100.00,WNW,285,20.0,28.0,26,-99.99,,,-99.99,,2013-01-19 05:03:00,
2013-01-18 22:12:00,25.0,-2.0,-100.00,WSW,239,14.0,28.0,27,-99.99,,,-99.99,,2013-01-19 05:12:00,
2013-01-18 22:22:00,24.0,-1.0,-100.00,West,262,18.0,28.0,29,-99.99,,,-99.99,,2013-01-19 05:22:00,
2013-01-18 22:33:00,23.0,-1.0,-100.00,West,268,20.0,32.0,31,-99.99,,,-99.99,,2013-01-19 05:33:00,
2013-01-18 22:42:00,23.0,-1.0,-100.00,West,262,17.0,32.0,31,-99.99,,,-99.99,,2013-01-19 05:42:00,
2013-01-18 22:52:00,23.0,-1.0,-100.00,SW,217,12.0,27.0,32,-99.99,,,-99.99,,2013-01-19 05:52:00,
2013-01-18 23:02:00,23.0,-1.0,-100.00,WSW,245,18.0,25.0,31,-99.99,,,-99.99,,2013-01-19 06:02:00,
2013-01-18 23:12:00,23.0,-1.0,-100.00,WSW,239,14.0,25.0,32,-99.99,,,-99.99,,2013-01-19 06:12:00,
2013-01-18 23:22:00,23.0,-1.0,-100.00,West,279,8.0,19.0,32,-99.99,,,-99.99,,2013-01-19 06:22:00,
2013-01-18 23:32:00,22.0,-2.0,-100.00,West,279,8.0,11.0,32,-99.99,,,-99.99,,2013-01-19 06:32:00,
2013-01-18 23:43:00,22.0,-2.0,-100.00,NNE,28,4.0,11.0,32,-99.99,,,-99.99,,2013-01-19 06:43:00,
2013-01-18 23:52:00,22.0,-1.0,-100.00,NNE,28,4.0,12.0,34,-99.99,,,-99.99,,2013-01-19 06:52:00,